Location: Overspoor
(51.4747°N, 5.6641°E)
Time: 21:07:46
(UTC+02:00)

AO-7 - Visible Passes

Search period start: 29 June 2022 00:00
Search period end: 09 July 2022 00:00
Orbit: 1439 x 1459 km, 101.9° (Epoch: 29 June)

Date Brightness Start Highest point End Pass type
(mag) Time Alt. Az. Time Alt. Az. Time Alt. Az.
29 Jun ? 04:00:40 10° ENE 04:03:14 11° E 04:05:47 10° E visible
01 Jul ? 03:55:45 10° ENE 03:55:58 10° ENE 03:56:11 10° E visible
04 Jul ? 04:37:00 10° NE 04:43:00 21° E 04:48:57 10° SE visible
06 Jul ? 04:30:12 10° NE 04:35:47 19° E 04:41:21 10° SE visible
08 Jul ? 04:23:27 10° NE 04:28:34 17° E 04:33:40 10° ESE visible
